• en Suisse
  • Liste des pays
  • À 7 jours
  • Température de l'eau
  • Carte satellitaire
  • Carte météo
  • Widgets météo
  • user-avatar
    Se connecter

    Météo par heure à Eisenstadt

    Ce jour, 24 Septembre, Lundi

    Heure Température Précipitation Vent Pression Humidité
    00:00 +15°C° 0.3 mm 4 m/s 718 mmHg 81%
    01:00 +15°C° 0.3 mm 5 m/s 719 mmHg 81%
    02:00 +14°C° 0.9 mm 5 m/s 720 mmHg 81%
    03:00 +12°C° 0.9 mm 5 m/s 721 mmHg 81%
    04:00 +10°C° 0.9 mm 6 m/s 722 mmHg 82%
    05:00 +9°C° 0.5 mm 6 m/s 723 mmHg 80%
    06:00 +9°C° 0.5 mm 6 m/s 724 mmHg 79%
    07:00 +8°C° 0.5 mm 6 m/s 725 mmHg 77%
    08:00 +9°C° 0.1 mm 7 m/s 726 mmHg 70%
    09:00 +9°C° 0.1 mm 7 m/s 728 mmHg 63%
    10:00 +10°C° 0.1 mm 7 m/s 729 mmHg 56%
    11:00 +11°C° 0 mm 7 m/s 729 mmHg 53%
    12:00 +11°C° 0 mm 7 m/s 729 mmHg 50%
    13:00 +11°C° 0 mm 7 m/s 730 mmHg 46%
    14:00 +11°C° 0 mm 7 m/s 730 mmHg 47%
    15:00 +11°C° 0 mm 6 m/s 730 mmHg 48%
    16:00 +10°C° 0 mm 6 m/s 730 mmHg 48%
    17:00 +9°C° 0 mm 5 m/s 730 mmHg 53%
    18:00 +8°C° 0 mm 4 m/s 731 mmHg 58%
    19:00 +8°C° 0 mm 3 m/s 731 mmHg 63%
    20:00 +7°C° 0 mm 3 m/s 732 mmHg 65%
    21:00 +7°C° 0 mm 3 m/s 732 mmHg 67%
    22:00 +7°C° 0 mm 3 m/s 732 mmHg 69%
    23:00 +5°C° 0 mm 3 m/s 733 mmHg 71%

    Demain, 25 Septembre, Mardi

    Heure Température Précipitation Vent Pression Humidité
    00:00 +5°C° 0 mm 3 m/s 733 mmHg 73%
    01:00 +6°C° 0 mm 2 m/s 733 mmHg 74%
    02:00 +5°C° 0 mm 2 m/s 733 mmHg 75%
    03:00 +5°C° 0 mm 2 m/s 733 mmHg 77%
    04:00 +4°C° 0 mm 3 m/s 734 mmHg 78%
    05:00 +4°C° 0 mm 3 m/s 734 mmHg 76%
    06:00 +5°C° 0 mm 3 m/s 734 mmHg 75%
    07:00 +5°C° 0 mm 3 m/s 735 mmHg 73%
    08:00 +6°C° 0 mm 4 m/s 735 mmHg 65%
    09:00 +8°C° 0 mm 4 m/s 735 mmHg 56%
    10:00 +9°C° 0 mm 5 m/s 736 mmHg 47%
    11:00 +10°C° 0 mm 5 m/s 736 mmHg 44%
    12:00 +12°C° 0 mm 5 m/s 735 mmHg 41%
    13:00 +12°C° 0 mm 5 m/s 735 mmHg 38%
    14:00 +12°C° 0 mm 5 m/s 735 mmHg 38%
    15:00 +12°C° 0 mm 5 m/s 735 mmHg 39%
    16:00 +12°C° 0 mm 5 m/s 735 mmHg 39%
    17:00 +10°C° 0 mm 4 m/s 735 mmHg 45%
    18:00 +8°C° 0 mm 3 m/s 736 mmHg 51%
    19:00 +7°C° 0 mm 2 m/s 736 mmHg 57%
    20:00 +6°C° 0 mm 2 m/s 737 mmHg 59%
    21:00 +6°C° 0 mm 2 m/s 737 mmHg 61%
    22:00 +5°C° 0 mm 2 m/s 737 mmHg 64%
    23:00 +5°C° 0 mm 2 m/s 737 mmHg 65%

    Après-demain, 26 Septembre, Mercredi

    Heure Température Précipitation Vent Pression Humidité
    00:00 +4°C° 0 mm 2 m/s 737 mmHg 66%
    01:00 +4°C° 0 mm 2 m/s 737 mmHg 68%
    02:00 +4°C° 0 mm 2 m/s 737 mmHg 68%
    03:00 +4°C° 0 mm 2 m/s 737 mmHg 69%
    04:00 +4°C° 0 mm 1 m/s 737 mmHg 70%
    05:00 +5°C° 0 mm 1 m/s 737 mmHg 68%
    06:00 +5°C° 0 mm 1 m/s 737 mmHg 67%
    07:00 +6°C° 0 mm 1 m/s 737 mmHg 65%
    08:00 +8°C° 0 mm 1 m/s 737 mmHg 58%
    09:00 +10°C° 0 mm 1 m/s 737 mmHg 51%
    10:00 +13°C° 0 mm 1 m/s 737 mmHg 44%
    11:00 +14°C° 0 mm 2 m/s 737 mmHg 40%
    12:00 +15°C° 0 mm 2 m/s 737 mmHg 37%
    13:00 +16°C° 0 mm 3 m/s 736 mmHg 34%
    14:00 +16°C° 0 mm 3 m/s 736 mmHg 35%
    15:00 +16°C° 0 mm 3 m/s 735 mmHg 36%
    16:00 +14°C° 0 mm 3 m/s 735 mmHg 38%
    17:00 +12°C° 0 mm 3 m/s 735 mmHg 44%
    18:00 +10°C° 0 mm 2 m/s 734 mmHg 51%
    19:00 +8°C° 0 mm 2 m/s 734 mmHg 57%
    20:00 +8°C° 0 mm 2 m/s 734 mmHg 58%
    21:00 +8°C° 0 mm 2 m/s 735 mmHg 59%
    22:00 +7°C° 0 mm 2 m/s 735 mmHg 60%
    23:00 +7°C° 0 mm 2 m/s 734 mmHg 60%

    27 Septembre, Jeudi

    Heure Température Précipitation Vent Pression Humidité
    00:00 +7°C° 0 mm 2 m/s 734 mmHg 60%
    01:00 +7°C° 0 mm 2 m/s 734 mmHg 60%
    02:00 +8°C° 0 mm 1 m/s 734 mmHg 59%
    03:00 +8°C° 0 mm 1 m/s 733 mmHg 59%
    04:00 +8°C° 0 mm 1 m/s 733 mmHg 59%
    05:00 +8°C° 0 mm 1 m/s 733 mmHg 58%
    06:00 +9°C° 0 mm 1 m/s 733 mmHg 57%
    07:00 +9°C° 0 mm 1 m/s 733 mmHg 56%
    08:00 +12°C° 0 mm 1 m/s 733 mmHg 49%
    09:00 +15°C° 0 mm 1 m/s 733 mmHg 43%
    10:00 +18°C° 0 mm 1 m/s 734 mmHg 37%
    11:00 +20°C° 0 mm 1 m/s 733 mmHg 34%
    12:00 +21°C° 0 mm 1 m/s 733 mmHg 32%
    13:00 +22°C° 0 mm 1 m/s 732 mmHg 29%
    14:00 +22°C° 0 mm 1 m/s 732 mmHg 32%
    15:00 +21°C° 0 mm 1 m/s 731 mmHg 34%
    16:00 +21°C° 0 mm 1 m/s 731 mmHg 36%
    17:00 +19°C° 0 mm 1 m/s 730 mmHg 42%
    18:00 +16°C° 0 mm 1 m/s 730 mmHg 48%
    19:00 +13°C° 0 mm 1 m/s 730 mmHg 53%
    20:00 +13°C° 0 mm 1 m/s 729 mmHg 55%
    21:00 +12°C° 0 mm 1 m/s 729 mmHg 56%
    22:00 +12°C° 0 mm 1 m/s 729 mmHg 58%
    23:00 +11°C° 0 mm 1 m/s 729 mmHg 58%

    28 Septembre, Vendredi

    Heure Température Précipitation Vent Pression Humidité
    00:00 +11°C° 0 mm 1 m/s 728 mmHg 59%
    01:00 +11°C° 0 mm 1 m/s 728 mmHg 59%
    02:00 +11°C° 0 mm 1 m/s 728 mmHg 60%
    03:00 +10°C° 0 mm 1 m/s 727 mmHg 60%
    04:00 +10°C° 0 mm 1 m/s 727 mmHg 61%
    05:00 +11°C° 0 mm 1 m/s 727 mmHg 61%
    06:00 +11°C° 0 mm 1 m/s 727 mmHg 61%
    07:00 +11°C° 0 mm 1 m/s 727 mmHg 61%
    08:00 +14°C° 0 mm 1 m/s 727 mmHg 54%
    09:00 +18°C° 0 mm 1 m/s 727 mmHg 47%
    10:00 +20°C° 0 mm 1 m/s 728 mmHg 40%
    11:00 +21°C° 0 mm 1 m/s 727 mmHg 37%
    12:00 +22°C° 0 mm 1 m/s 727 mmHg 35%
    13:00 +23°C° 0 mm 1 m/s 727 mmHg 33%
    14:00 +23°C° 0 mm 1 m/s 726 mmHg 35%
    15:00 +22°C° 0 mm 1 m/s 726 mmHg 37%
    16:00 +22°C° 0 mm 1 m/s 725 mmHg 39%
    17:00 +20°C° 0 mm 1 m/s 725 mmHg 45%
    18:00 +16°C° 0 mm 1 m/s 725 mmHg 50%
    19:00 +13°C° 0 mm 0 m/s 725 mmHg 56%
    20:00 +14°C° 0 mm 1 m/s 725 mmHg 58%
    21:00 +13°C° 0 mm 1 m/s 725 mmHg 60%
    22:00 +13°C° 0 mm 1 m/s 725 mmHg 61%
    23:00 +13°C° 0 mm 1 m/s 725 mmHg 63%

    29 Septembre, Samedi

    Heure Température Précipitation Vent Pression Humidité
    00:00 +12°C° 0 mm 2 m/s 726 mmHg 65%
    01:00 +12°C° 0 mm 2 m/s 726 mmHg 67%
    02:00 +12°C° 0 mm 2 m/s 726 mmHg 71%
    03:00 +10°C° 0 mm 3 m/s 726 mmHg 76%
    04:00 +10°C° 0 mm 3 m/s 726 mmHg 80%
    05:00 +10°C° 0 mm 3 m/s 726 mmHg 81%
    06:00 +10°C° 0 mm 4 m/s 727 mmHg 82%
    07:00 +11°C° 0 mm 4 m/s 727 mmHg 82%
    08:00 +12°C° 0 mm 4 m/s 727 mmHg 75%
    09:00 +14°C° 0 mm 5 m/s 728 mmHg 68%
    10:00 +15°C° 0 mm 5 m/s 728 mmHg 61%
    11:00 +16°C° 0 mm 5 m/s 728 mmHg 56%
    12:00 +16°C° 0 mm 5 m/s 728 mmHg 52%
    13:00 +17°C° 0 mm 5 m/s 728 mmHg 48%
    14:00 +16°C° 0 mm 5 m/s 728 mmHg 47%
    15:00 +16°C° 0 mm 5 m/s 727 mmHg 45%
    16:00 +17°C° 0 mm 4 m/s 727 mmHg 44%
    17:00 +14°C° 0 mm 4 m/s 727 mmHg 47%
    18:00 +12°C° 0 mm 3 m/s 728 mmHg 51%
    19:00 +10°C° 0 mm 3 m/s 728 mmHg 54%
    20:00 +9°C° 0 mm 2 m/s 728 mmHg 56%
    21:00 +9°C° 0 mm 2 m/s 728 mmHg 58%
    22:00 +8°C° 0 mm 2 m/s 728 mmHg 59%
    23:00 +8°C° 0 mm 2 m/s 728 mmHg 60%
    Voir plus